Regional Weather Roundup
Issued by NWS

Home | Current Version | Previous Version | Graphics & Text | Print | Product List | Glossary On
Versions: 1 2 3 4 5 6 7 8 9 10 11 12 13 14 15 16 17 18 19 20 21 22 23 24 25 26 27 28 29 30 31 32 33 34 35 36 37 38 39 40 41 42 43 44 45 46 47 48 49 50
966
ASUS43 KMKX 250500
RWRWI

WISCONSIN REGIONAL WEATHER ROUNDUP
NATIONAL WEATHER SERVICE MILWAUKEE/SULLIVAN WI
1200 AM CDT TUE APR 25 2017

NOTE: "FAIR" INDICATES FEW OR NO CLOUDS BELOW 12,000 FEET WITH NO
SIGNIFICANT WEATHER AND/OR OBSTRUCTIONS TO VISIBILITY.

WIZ001-002-006>008-014>016-023>028-250600-
NORTHWEST WISCONSIN

CITY           SKY/WX    TMP DP  RH WIND       PRES   REMARKS
SUPERIOR ARPT  CLOUDY    37  34  90 E15G22    29.66F WCI  28
ASHLAND        CLOUDY    39  35  86 NE9       29.65F WCI  33
HAYWARD        CLOUDY    62  30  29 S20G29    29.61S
SIREN          CLOUDY    63  30  29 S14G21    29.57F
CUMBERLAND     CLOUDY    59  32  36 S16       29.60F
RICE LAKE      CLOUDY    63  31  30 S16G22    29.63F
CHETEK         CLOUDY    63  34  33 S9G24     29.63F
LADYSMITH      CLOUDY    63  31  29 S10       29.67S
EAU CLAIRE     NOT AVBL
MENOMONIE      CLOUDY    59  37  43 CALM      29.62F
NEW RICHMOND   CLOUDY    63  30  28 SE9       29.57F
OSCEOLA        CLOUDY    64  32  31 SE9G16    29.58F
$$

WIZ003>005-009-010-017-018-250600-
NORTH CENTRAL WISCONSIN

CITY           SKY/WX    TMP DP  RH WIND       PRES   REMARKS
MANITOWISH WTR CLOUDY    54  38  53 CALM      29.71F
ARBOR VITAE    CLOUDY    57  37  48 SE6       29.72F
WOODRUFF       CLOUDY    57  37  48 SE6       29.72F
RHINELANDER    CLOUDY    52  36  54 E6        29.73F
EAGLE RIVER    MOCLDY    51  32  47 SE7       29.74F
LAND O LAKES   CLOUDY    53  32  45 S7        29.78R
PHILLIPS       CLOUDY    57  35  44 SE5       29.68S
TOMAHAWK       CLOUDY    55  32  42 SE3       29.72F
MEDFORD        CLOUDY    57  33  39 SE7       29.69S
MERRILL        CLOUDY    56  32  39 SE8       29.72F
$$

WIZ029-030-035-036-043>047-250600-
CENTRAL WISCONSIN

CITY           SKY/WX    TMP DP  RH WIND       PRES   REMARKS
WAUSAU         CLOUDY    58  30  34 SE13G21   29.69F
MOSINEE        CLOUDY    55  30  38 SE10      29.72F
MARSHFIELD     CLOUDY    57  33  40 SE6       29.68S
STEVENS POINT  CLOUDY    57  30  35 S9        29.74R
WAUPACA        CLOUDY    60  29  31 SE6       29.74R
WAUTOMA        CLOUDY    61  38  42 VRB5      29.74R
WISC RAPIDS    NOT AVBL
CAMP DOUGLAS   NOT AVBL
$$

WIZ011>013-019>022-031-037>040-048>050-250600-
NORTHEAST WISCONSIN

CITY           SKY/WX    TMP DP  RH WIND       PRES   REMARKS
ANTIGO         CLOUDY    49  36  59 SE9       29.75F
SHAWANO        CLOUDY    51  41  69 NE8       29.77S
OCONTO         CLOUDY    44  35  72 E7        29.78F
STURGEON BAY   PTCLDY    46  34  62 SE6       29.80S
GREEN BAY      PTCLDY    49  38  65 E5        29.78R
MANITOWOC      NOT AVBL
APPLETON       CLOUDY    57  27  30 SE12G21   29.73F
CLINTONVILLE   MOCLDY    54  32  43 SE6       29.74R
OSHKOSH        CLOUDY    57  32  38 SE14      29.72F
$$

WIZ032>034-041-042-053>061-250600-
SOUTHWEST WISCONSIN

CITY           SKY/WX    TMP DP  RH WIND       PRES   REMARKS
LA CROSSE      CLOUDY    66  31  27 S8        29.62F
SPARTA         CLOUDY    64  31  29 SE6       29.67R
VIROQUA        CLOUDY    62  29  28 SE13      29.67S
BOSCOBEL       PTCLDY    64  30  27 CALM      29.68R
PRAIRIE DU CHI CLEAR     59  31  33 E6        29.65S
PLATTEVILLE    CLEAR     60  32  35 SE10      29.69R
$$

WIZ056-057-062-063-064-067-068-250600-
SOUTH CENTRAL WISCONSIN

CITY           SKY/WX    TMP DP  RH WIND       PRES   REMARKS
REEDSBURG      CLOUDY    61  34  35 SE8       29.69S
BARABOO/DELLS  CLOUDY    61  28  28 SE12G17   29.70S
LONE ROCK      NOT AVBL
MINERAL POINT  CLOUDY    61  30  31 SE10      29.69S
MADISON        MOCLDY    61  30  31 SE15      29.71F
MIDDLETON      MOCLDY    63  28  27 SE13      29.71S
WATERTOWN      MOCLDY    57  32  38 SE16G23   29.71F
MONROE         CLOUDY    61  30  31 SE15G21   29.70F
JANESVILLE     CLOUDY    59  32  36 SE8       29.73S
$$

WIZ051-052-058>065-066-070>072-250600-
SOUTHEAST WISCONSIN

CITY           SKY/WX    TMP DP  RH WIND       PRES   REMARKS
MILWAUKEE      CLOUDY    49  37  63 NW3       29.78S
WAUKESHA       CLOUDY    52  32  46 SE6       29.79R
MILWAUKEE/TIMM CLOUDY    48  32  53 CALM      29.79S
RACINE         CLOUDY    55  35  47 SE8       29.79F
KENOSHA        CLOUDY    56  35  45 SE9       29.77F
FOND DU LAC    CLOUDY    56  29  35 SE12      29.72F
SHEBOYGAN      CLOUDY    44  38  79 CALM      29.78F
WEST BEND      PTCLDY    50  32  50 CALM      29.78S
JUNEAU         CLOUDY    58  30  34 E8        29.75F
$$

LSZ147-162-250600-
LAKE SUPERIOR

STATION/POSITION TIME  TEMP    WIND        PRES    WAVE
                       AIR SEA DIR/SP/G            HT/PER
                 (UTC) (F)     (DEG/KT/KT) (MB)    (FT/S)
DEVILS ISLAND    0400   38      60/ 25/ 29 1005.7F
PORT WING        0430   38      40/ 11/ 13 1004.1F
SAXON HARBOR     0430   39     310/  5/  5 1004.1F
$$

LMZ867-665-643>646-250600-
LAKE MICHIGAN

STATION/POSITION TIME  TEMP    WIND        PRES    WAVE
                       AIR SEA DIR/SP/G            HT/PER
                 (UTC) (F)     (DEG/KT/KT) (MB)    (FT/S)
CHAMBERS ISLAND  0440   45      80/  4/  8 1008.8F
N MID LAKE BUOY  0350   40 37  100/  8/  8 1011.2F   2/ 4
NORTHPORT PIER   0440   42     140/  3/  5 1009.8S
SISTER BAY       0406   43     120/  8/ 12   N/A
ALGOMA LAKESHORE 0344           CALM  /  5   N/A
KEWAUNEE LAKESHO 0430   45     100/  3/  5 1008.6F
SHEBOYGAN LAKESH 0400   46      30/  3/  3 1009.0F
PORT WASHINGTON  0440   48      CALM  /  2 1009.8S
MILWAUKEE LAKESH 0430   50      50/  4/  5   N/A
S MID LAKE BUOY  0350   48 41  100/  8/ 10 1009.3S   1
KENOSHA   LAKESH 0400   53     160/ 13/ 17 1008.5
$$

TC  - TEMPERATURE IN CELSIUS
VSB - VISIBILITY IN STATUTE MILES
WCI - WIND CHILL INDEX
HX  - HEAT INDEX





USA.gov is the U.S. government's official web portal to all federal, state and local government web resources and services.